Main page
METAR-TAF:

METAR-TAF

Airports :

Hohenfels, Germany

latitude: 49-13N, longitude: 011-50E, elevation: 442 m

Current weather observation

The report was made 46 minutes ago, at 21:56 UTC
Calm wind
Temperature 3°C
Humidity 81%
Pressure 1020 hPa
Visibility 10 km or more
Clear sky

METAR: ETIH 262156Z AUTO 00000KT 9999 CLR 03/00 A3011 RMK AO2 SLPNO T00310003 $

Time: 00:42 (22:42 UTC)


TAF: missing

Weather observations and forecasts of more than 4000 airports (METAR and TAF reports).

The available stations are represented by yellow and red dots on the map.

Hover mouse over dot to see the name of the station.

Then click to see weather observations and forecasts.

To change the map : click on the green buttons with a black cross to zoom in, on the green button with a dash to zoom out, or on the green arrows for adjacent maps.


METAR-TAF: